Location: ?????
(31.8092°N, 35.2590°E)
Time: 03:39:32
(UTC+00:00)

Lacrosse 5 - Pass Details

Date: 24 October 2021
Orbit: 714 x 724 km, 57.0° (Epoch: 28 August)

Event Time Altitude Azimuth Distance (km) Brightness Sun altitude
Exits shadow 02:57:32 - 317° (NW) 2,387 4.1 -11.6°
Reaches altitude 10° 02:58:01 10° 317° (NW) 2,203 3.9 -11.5°
Maximum altitude 03:03:03 68° 235° (SW) 770 1.9 -10.4°
Drops below altitude 10° 03:08:03 10° 153° (SSE) 2,186 4.9 -9.4°
Sets 03:10:25 0° 150° (SSE) 3,101 5.7 -8.9°
